User: anonymous
Location: SAPM � Hemmingford
(45.0500°N, 73.5833°W)
Time: 13:29:00
(UTC-04:00)
Language:

Iridium 75 - Orbit

View from above orbital plane
View from above orbital plane
View from above satellite
View from above satellite

Ground track
Ground track

The orbit data is extracted from the following two-line orbital elements,

1 25346U 98032E   14110.25653860  .00000735  00000-0  25546-3 0  7857
2 25346 086.3982 346.4293 0002122 102.6820 036.0326 14.34212948834277
Epoch (UTC): 20 April 2014 06:09:24
Eccentricity: 0.0002122
inclination: 86.3982°
perigee height: 776 km
apogee height: 779 km
right ascension of ascending node: 346.4293°
argument of perigee: 102.6820°
revolutions per day: 14.34212948
mean anomaly at epoch: 36.0326°
orbit number at epoch: 83427

The dashed part of the orbit path shows where the satellite is in the earth's shadow,  

DLR